Location: Eferding
(48.3167°N, 14.0167°E)
Time: 22:21:54
(UTC+00:00)

Cosmos 1816 Rocket - Pass Details

Date: 12 November 2019
Orbit: 951 x 999 km, 82.9° (Epoch: 09 December)

Event Time Altitude Azimuth Distance (km) Brightness Sun altitude
Rises 17:49:33 0° 175° (S) 3,688 7.5 -23.3°
Reaches altitude 10° 17:52:04 10° 173° (S) 2,748 6.8 -23.7°
Maximum altitude 17:58:18 63° 93° (E) 1,106 4.4 -24.8°
Drops below altitude 10° 18:04:35 10° 15° (NNE) 2,781 6.7 -25.8°
Sets 18:07:09 0° 12° (NNE) 3,734 7.5 -26.2°
